Station History

Weather Underground - logo

Station Historical Data
Daily Summary for August 15, 2017 Units:  English    Metric   Both
« Previous Day
Next Day »
Daily Weekly Monthly Yearly Custom
  High: Low: Average:
Temperature: TemperatureF °F 61.1 °F 75.1 °F
Dew Point: DewpointF °F 55.6 °F 60.2 °F
Humidity: Humidity % 39 % 62 %
Wind Speed: WindSpeedMPH mph 0.0 mph 1.2 mph
Wind Gust: WindSpeedGustMPH mph - -
Wind:- - SW
Pressure: PressureIn in 29.72 in -
Precipitation: 0.00 in    
Historical Graphs
 
 
Tabular Data for August 15, 2017
Time Temperature Dew Point Pressure Wind Wind Speed Wind Gust Humidity Rainfall Rate (Hourly)
TemperatureF °F DewpointF °F PressureIn in Calm     Humidity % HourlyPrecipIn in
00:05 72.3 °F 55.7 °F 29.72 in Calm     56 % 0.00 in
00:10 71.8 °F 56.2 °F 29.72 in Calm     58 % 0.00 in
00:15 71.4 °F 56.8 °F 29.73 in Calm     60 % 0.00 in
00:20 71.0 °F 56.9 °F 29.72 in Calm     61 % 0.00 in
00:25 70.9 °F 58.1 °F 29.73 in Calm     64 % 0.00 in
00:30 70.9 °F 57.7 °F 29.73 in Calm     63 % 0.00 in
00:35 71.0 °F 58.2 °F 29.73 in Calm     64 % 0.00 in
00:40 70.7 °F 57.9 °F 29.73 in Calm     64 % 0.00 in
00:45 70.4 °F 57.6 °F 29.73 in Calm     64 % 0.00 in
00:50 70.2 °F 58.3 °F 29.73 in Calm     66 % 0.00 in
00:55 69.9 °F 58.4 °F 29.73 in Calm     67 % 0.00 in
01:00 69.7 °F 58.3 °F 29.73 in Calm     67 % 0.00 in
01:05 69.4 °F 58.4 °F 29.73 in Calm     68 % 0.00 in
01:10 69.1 °F 58.5 °F 29.73 in Calm     69 % 0.00 in
01:15 68.9 °F 58.3 °F 29.73 in Calm     69 % 0.00 in
01:20 68.9 °F 58.7 °F 29.73 in Calm     70 % 0.00 in
01:25 68.8 °F 59.0 °F 29.73 in Calm     71 % 0.00 in
01:30 68.8 °F 59.4 °F 29.74 in Calm     72 % 0.00 in
01:35 68.7 °F 59.3 °F 29.73 in Calm     72 % 0.00 in
01:40 68.8 °F 59.4 °F 29.74 in Calm     72 % 0.00 in
01:45 68.8 °F 59.4 °F 29.74 in Calm     72 % 0.00 in
01:50 68.9 °F 59.5 °F 29.74 in Calm     72 % 0.00 in
01:55 68.9 °F 59.5 °F 29.74 in Calm     72 % 0.00 in
02:00 68.8 °F 59.4 °F 29.74 in NW 1.2 mph 1.2 mph 72 % 0.00 in
02:05 68.8 °F 59.4 °F 29.74 in Calm     72 % 0.00 in
02:10 68.6 °F 59.2 °F 29.74 in Calm     72 % 0.00 in
02:15 68.6 °F 60.0 °F 29.73 in Calm     74 % 0.00 in
02:20 68.3 °F 59.7 °F 29.73 in Calm     74 % 0.00 in
02:25 68.1 °F 59.5 °F 29.74 in Calm     74 % 0.00 in
02:30 67.7 °F 59.5 °F 29.74 in Calm     75 % 0.00 in
02:35 67.3 °F 59.1 °F 29.74 in Calm     75 % 0.00 in
02:40 66.9 °F 59.1 °F 29.74 in Calm     76 % 0.00 in
02:45 66.6 °F 58.8 °F 29.74 in Calm     76 % 0.00 in
02:50 66.4 °F 59.0 °F 29.74 in Calm     77 % 0.00 in
02:55 66.2 °F 59.1 °F 29.74 in Calm     78 % 0.00 in
03:00 65.9 °F 58.8 °F 29.75 in Calm     78 % 0.00 in
03:05 65.7 °F 59.0 °F 29.75 in Calm     79 % 0.00 in
03:10 65.5 °F 58.8 °F 29.75 in Calm     79 % 0.00 in
03:15 65.2 °F 58.9 °F 29.75 in Calm     80 % 0.00 in
03:20 65.0 °F 58.7 °F 29.75 in Calm     80 % 0.00 in
03:25 64.6 °F 58.6 °F 29.75 in Calm     81 % 0.00 in
03:30 64.5 °F 58.9 °F 29.75 in Calm     82 % 0.00 in
03:35 64.5 °F 58.9 °F 29.75 in Calm     82 % 0.00 in
03:40 64.3 °F 58.7 °F 29.75 in Calm     82 % 0.00 in
03:45 64.1 °F 58.8 °F 29.75 in Calm     83 % 0.00 in
03:50 64.0 °F 58.7 °F 29.75 in Calm     83 % 0.00 in
03:55 63.9 °F 58.6 °F 29.75 in NW 1.2 mph   83 % 0.00 in
04:00 63.8 °F 58.9 °F 29.75 in Calm     84 % 0.00 in
04:06 63.7 °F 58.8 °F 29.76 in Calm     84 % 0.00 in
04:11 63.5 °F 58.6 °F 29.75 in Calm     84 % 0.00 in
04:16 63.4 °F 58.8 °F 29.76 in Calm     85 % 0.00 in
04:21 63.3 °F 58.7 °F 29.76 in Calm     85 % 0.00 in
04:26 63.2 °F 58.6 °F 29.76 in NW 1.2 mph   85 % 0.00 in
04:31 63.0 °F 58.4 °F 29.76 in NW 1.2 mph 1.2 mph 85 % 0.00 in
04:36 62.9 °F 58.3 °F 29.76 in NW 1.2 mph   85 % 0.00 in
04:41 62.8 °F 58.2 °F 29.77 in Calm     85 % 0.00 in
04:46 62.7 °F 58.1 °F 29.77 in Calm     85 % 0.00 in
04:51 62.6 °F 57.7 °F 29.77 in Calm     84 % 0.00 in
04:56 62.4 °F 57.8 °F 29.77 in Calm     85 % 0.00 in
05:01 62.3 °F 57.4 °F 29.77 in Calm     84 % 0.00 in
05:06 62.2 °F 57.3 °F 29.77 in Calm     84 % 0.00 in
05:11 62.0 °F 57.1 °F 29.77 in Calm     84 % 0.00 in
05:16 61.9 °F 57.0 °F 29.77 in Calm     84 % 0.00 in
05:21 61.8 °F 56.9 °F 29.77 in Calm     84 % 0.00 in
05:26 61.8 °F 56.9 °F 29.78 in Calm     84 % 0.00 in
05:31 61.7 °F 56.8 °F 29.78 in Calm     84 % 0.00 in
05:36 61.6 °F 56.4 °F 29.78 in Calm     83 % 0.00 in
05:41 61.5 °F 56.3 °F 29.78 in NW 1.2 mph 1.2 mph 83 % 0.00 in
05:46 61.4 °F 56.2 °F 29.78 in NW 1.2 mph 1.2 mph 83 % 0.00 in
05:51 61.3 °F 56.1 °F 29.78 in Calm     83 % 0.00 in
05:56 61.3 °F 56.1 °F 29.78 in NW 1.2 mph   83 % 0.00 in
06:01 61.2 °F 56.0 °F 29.78 in Calm     83 % 0.00 in
06:06 61.2 °F 56.0 °F 29.78 in NW 1.2 mph 1.2 mph 83 % 0.00 in
06:11 61.2 °F 56.0 °F 29.78 in Calm     83 % 0.00 in
06:16 61.1 °F 55.6 °F 29.79 in Calm     82 % 0.00 in
06:21 61.1 °F 55.6 °F 29.79 in Calm     82 % 0.00 in
06:23 61.2 °F 55.7 °F 29.79 in Calm     82 % 0.00 in
06:28 61.1 °F 55.9 °F 29.79 in Calm     83 % 0.00 in
06:33 61.1 °F 55.9 °F 29.79 in Calm     83 % 0.00 in
06:38 61.2 °F 56.0 °F 29.80 in Calm     83 % 0.00 in
06:43 61.2 °F 56.0 °F 29.80 in Calm     83 % 0.00 in
06:48 61.4 °F 56.2 °F 29.80 in Calm     83 % 0.00 in
06:53 61.5 °F 56.3 °F 29.80 in Calm     83 % 0.00 in
06:58 61.7 °F 56.1 °F 29.80 in Calm     82 % 0.00 in
07:03 62.0 °F 56.4 °F 29.80 in Calm     82 % 0.00 in
07:08 62.3 °F 56.7 °F 29.80 in Calm     82 % 0.00 in
07:13 62.6 °F 56.7 °F 29.80 in Calm     81 % 0.00 in
07:18 62.9 °F 57.0 °F 29.81 in Calm     81 % 0.00 in
07:23 63.2 °F 57.3 °F 29.81 in Calm     81 % 0.00 in
07:28 63.5 °F 57.2 °F 29.81 in NNW 2.3 mph 2.3 mph 80 % 0.00 in
07:33 64.4 °F 58.1 °F 29.81 in NNE 1.2 mph   80 % 0.00 in
07:36 64.9 °F 57.9 °F 29.81 in NNE 1.2 mph 1.2 mph 78 % 0.00 in
07:41 65.6 °F 58.2 °F 29.82 in ENE 1.2 mph 1.2 mph 77 % 0.00 in
07:46 66.3 °F 58.5 °F 29.82 in SSE 2.3 mph 2.3 mph 76 % 0.00 in
07:51 66.8 °F 58.6 °F 29.82 in ESE 1.2 mph   75 % 0.00 in
07:56 67.4 °F 59.2 °F 29.82 in SSE 1.2 mph 1.2 mph 75 % 0.00 in
08:01 68.0 °F 59.0 °F 29.82 in ESE 1.0 mph   73 % 0.00 in
08:06 68.6 °F 59.2 °F 29.82 in SE 1.2 mph 1.2 mph 72 % 0.00 in
08:11 69.0 °F 59.6 °F 29.82 in Calm     72 % 0.00 in
08:16 69.7 °F 59.9 °F 29.82 in Calm     71 % 0.00 in
08:21 70.0 °F 59.8 °F 29.82 in Calm     70 % 0.00 in
08:26 70.3 °F 59.6 °F 29.82 in East 3.0 mph 3.0 mph 69 % 0.00 in
08:31 70.6 °F 59.5 °F 29.82 in SSE 3.5 mph 3.5 mph 68 % 0.00 in
08:36 70.8 °F 59.7 °F 29.82 in NW 2.3 mph 2.3 mph 68 % 0.00 in
08:41 71.2 °F 60.1 °F 29.82 in NE 3.5 mph 3.5 mph 68 % 0.00 in
08:46 71.5 °F 60.4 °F 29.82 in NE 1.2 mph 1.2 mph 68 % 0.00 in
08:51 72.0 °F 60.0 °F 29.82 in East 3.5 mph 3.5 mph 66 % 0.00 in
08:56 72.0 °F 60.4 °F 29.82 in East 1.2 mph 1.2 mph 67 % 0.00 in
09:01 72.4 °F 60.8 °F 29.82 in East 2.3 mph 2.3 mph 67 % 0.00 in
09:06 73.0 °F 61.0 °F 29.82 in East 3.5 mph 3.5 mph 66 % 0.00 in
09:11 73.2 °F 60.3 °F 29.82 in NW 3.0 mph 3.0 mph 64 % 0.00 in
09:16 73.5 °F 61.0 °F 29.82 in Calm     65 % 0.00 in
09:21 74.2 °F 61.2 °F 29.81 in NE 2.3 mph 2.3 mph 64 % 0.00 in
09:26 74.5 °F 60.6 °F 29.82 in SSE 3.5 mph 3.5 mph 62 % 0.00 in
09:31 74.5 °F 61.1 °F 29.82 in East 2.3 mph 2.3 mph 63 % 0.00 in
09:36 74.6 °F 61.2 °F 29.82 in ENE 2.3 mph 2.3 mph 63 % 0.00 in
09:41 74.7 °F 61.7 °F 29.82 in NW 2.3 mph 2.3 mph 64 % 0.00 in
09:46 75.3 °F 61.4 °F 29.82 in ESE 3.5 mph 3.5 mph 62 % 0.00 in
09:51 75.2 °F 61.7 °F 29.82 in SSW 3.0 mph 3.0 mph 63 % 0.00 in
09:56 75.3 °F 60.9 °F 29.82 in NW 2.3 mph 2.3 mph 61 % 0.00 in
10:01 75.7 °F 62.2 °F 29.82 in ENE 3.5 mph 3.5 mph 63 % 0.00 in
10:03 75.9 °F 61.9 °F 29.82 in ESE 2.3 mph 2.3 mph 62 % 0.00 in
10:08 76.2 °F 61.8 °F 29.82 in East 4.6 mph 4.6 mph 61 % 0.00 in
10:13 76.6 °F 63.1 °F 29.82 in NW 3.0 mph 3.0 mph 63 % 0.00 in
10:18 76.4 °F 62.0 °F 29.82 in ENE 2.3 mph 2.3 mph 61 % 0.00 in
10:23 76.3 °F 62.3 °F 29.82 in North 2.0 mph 2.0 mph 62 % 0.00 in
10:28 76.3 °F 62.8 °F 29.82 in South 3.5 mph 3.5 mph 63 % 0.00 in
10:33 76.4 °F 61.5 °F 29.82 in SE 1.2 mph   60 % 0.00 in
10:38 76.9 °F 63.3 °F 29.82 in West 2.3 mph 2.3 mph 63 % 0.00 in
10:43 77.3 °F 62.3 °F 29.82 in NNW 1.2 mph 1.2 mph 60 % 0.00 in
10:48 77.6 °F 62.6 °F 29.82 in SSE 2.0 mph 2.0 mph 60 % 0.00 in
10:53 78.1 °F 63.1 °F 29.82 in SSE 3.5 mph 3.5 mph 60 % 0.00 in
10:58 78.0 °F 63.0 °F 29.82 in SW 2.3 mph 2.3 mph 60 % 0.00 in
11:04 78.1 °F 62.1 °F 29.82 in NW 1.2 mph 1.2 mph 58 % 0.00 in
11:09 77.8 °F 63.7 °F 29.82 in East 2.3 mph 2.3 mph 62 % 0.00 in
11:14 78.6 °F 64.0 °F 29.82 in SSE 2.3 mph 2.3 mph 61 % 0.00 in
11:19 78.7 °F 62.7 °F 29.82 in WNW 1.2 mph 1.2 mph 58 % 0.00 in
11:24 79.3 °F 63.7 °F 29.81 in SSE 1.2 mph 1.2 mph 59 % 0.00 in
11:29 79.6 °F 63.5 °F 29.81 in NW 2.3 mph 2.3 mph 58 % 0.00 in
11:34 79.3 °F 62.7 °F 29.81 in NW 2.3 mph 2.3 mph 57 % 0.00 in
11:39 78.7 °F 62.7 °F 29.81 in West 1.2 mph 1.2 mph 58 % 0.00 in
11:44 79.3 °F 64.2 °F 29.81 in SSE 1.2 mph 1.2 mph 60 % 0.00 in
11:49 80.2 °F 63.1 °F 29.81 in North 1.2 mph 1.2 mph 56 % 0.00 in
11:54 80.6 °F 64.9 °F 29.81 in SSE 1.2 mph 1.2 mph 59 % 0.00 in
11:59 81.4 °F 63.7 °F 29.81 in WNW 3.5 mph 3.5 mph 55 % 0.00 in
12:04 81.1 °F 62.3 °F 29.81 in WSW 3.5 mph 3.5 mph 53 % 0.00 in
12:09 81.3 °F 62.5 °F 29.81 in NW 2.3 mph 2.3 mph 53 % 0.00 in
12:14 81.6 °F 62.8 °F 29.81 in WNW 2.3 mph 2.3 mph 53 % 0.00 in
12:19 81.7 °F 62.9 °F 29.81 in WNW 2.3 mph 2.3 mph 53 % 0.00 in
12:24 82.2 °F 64.4 °F 29.80 in SSE 2.3 mph 2.3 mph 55 % 0.00 in
12:29 82.7 °F 62.2 °F 29.80 in NNW 3.5 mph 3.5 mph 50 % 0.00 in
12:34 82.0 °F 62.6 °F 29.80 in West 3.5 mph 3.5 mph 52 % 0.00 in
12:40 81.9 °F 62.5 °F 29.80 in SSE 2.3 mph 2.3 mph 52 % 0.00 in
12:45 82.7 °F 62.7 °F 29.80 in SE 5.0 mph 5.0 mph 51 % 0.00 in
12:50 82.8 °F 62.3 °F 29.80 in West 3.5 mph 3.5 mph 50 % 0.00 in
12:55 82.8 °F 61.7 °F 29.80 in WNW 1.2 mph 1.2 mph 49 % 0.00 in
13:00 82.6 °F 61.5 °F 29.80 in WNW 2.3 mph 2.3 mph 49 % 0.00 in
13:05 82.8 °F 61.7 °F 29.79 in East 3.5 mph 3.5 mph 49 % 0.00 in
13:10 83.6 °F 62.4 °F 29.79 in ENE 3.5 mph 3.5 mph 49 % 0.00 in
13:15 84.1 °F 61.7 °F 29.79 in West 1.2 mph 1.2 mph 47 % 0.00 in
13:20 84.9 °F 64.2 °F 29.79 in ESE 2.3 mph 2.3 mph 50 % 0.00 in
13:25 85.5 °F 63.6 °F 29.79 in NNW 3.5 mph 3.5 mph 48 % 0.00 in
13:30 85.7 °F 63.1 °F 29.79 in NW 1.2 mph 1.2 mph 47 % 0.00 in
13:35 85.9 °F 63.9 °F 29.78 in ESE 1.0 mph   48 % 0.00 in
13:40 86.2 °F 63.6 °F 29.78 in North 2.3 mph 2.3 mph 47 % 0.00 in
13:45 86.0 °F 62.2 °F 29.78 in SSW 1.2 mph 1.2 mph 45 % 0.00 in
13:50 86.0 °F 62.2 °F 29.78 in NNW 1.2 mph 1.2 mph 45 % 0.00 in
13:55 85.9 °F 63.9 °F 29.78 in NW 3.5 mph 3.5 mph 48 % 0.00 in
14:00 86.1 °F 64.1 °F 29.78 in NW 3.5 mph 3.5 mph 48 % 0.00 in
14:05 86.0 °F 62.2 °F 29.78 in WNW 1.2 mph 1.2 mph 45 % 0.00 in
14:10 86.1 °F 62.3 °F 29.78 in NW 3.5 mph 3.5 mph 45 % 0.00 in
14:15 86.1 °F 62.9 °F 29.77 in WNW 2.3 mph 2.3 mph 46 % 0.00 in
14:20 86.5 °F 63.3 °F 29.77 in NW 2.3 mph 2.3 mph 46 % 0.00 in
14:25 87.2 °F 62.0 °F 29.77 in NW 2.0 mph 2.0 mph 43 % 0.00 in
14:30 87.2 °F 60.6 °F 29.77 in WNW 2.3 mph 2.3 mph 41 % 0.00 in
14:35 87.0 °F 61.8 °F 29.77 in NNW 2.3 mph 2.3 mph 43 % 0.00 in
14:40 86.8 °F 61.0 °F 29.77 in WNW 2.3 mph 2.3 mph 42 % 0.00 in
14:45 86.9 °F 61.0 °F 29.77 in SE 5.0 mph 5.0 mph 42 % 0.00 in
14:50 87.1 °F 61.2 °F 29.77 in ESE 2.3 mph 2.3 mph 42 % 0.00 in
14:55 87.6 °F 61.7 °F 29.76 in NW 2.3 mph 2.3 mph 42 % 0.00 in
15:00 87.8 °F 60.5 °F 29.76 in North 3.5 mph 3.5 mph 40 % 0.00 in
15:05 87.7 °F 61.1 °F 29.76 in NW 2.3 mph 2.3 mph 41 % 0.00 in
15:10 87.7 °F 61.8 °F 29.76 in North 2.3 mph 2.3 mph 42 % 0.00 in
15:15 88.0 °F 62.0 °F 29.76 in NNW 2.3 mph 2.3 mph 42 % 0.00 in
15:20 88.5 °F 62.5 °F 29.76 in NNE 3.5 mph 3.5 mph 42 % 0.00 in
15:25 88.6 °F 62.6 °F 29.76 in NNW 3.5 mph 3.5 mph 42 % 0.00 in
15:30 88.3 °F 60.2 °F 29.76 in NW 3.5 mph 3.5 mph 39 % 0.00 in
15:35 88.0 °F 61.3 °F 29.76 in NW 3.0 mph 3.0 mph 41 % 0.00 in
15:40 87.4 °F 60.8 °F 29.75 in WNW 3.5 mph   41 % 0.00 in
15:45 87.8 °F 61.9 °F 29.75 in SSW 3.0 mph 3.0 mph 42 % 0.00 in
15:50 88.3 °F 62.3 °F 29.75 in NW 3.5 mph 3.5 mph 42 % 0.00 in
15:55 87.7 °F 61.1 °F 29.75 in NW 2.3 mph 2.3 mph 41 % 0.00 in
16:00 87.9 °F 61.9 °F 29.75 in WNW 1.2 mph 2.1 mph 42 % 0.00 in
16:05 88.2 °F 62.2 °F 29.75 in SW 3.5 mph 3.5 mph 42 % 0.00 in
16:10 88.4 °F 61.7 °F 29.75 in NW 3.5 mph 3.5 mph 41 % 0.00 in
16:15 88.7 °F 61.3 °F 29.75 in West 3.0 mph 3.0 mph 40 % 0.00 in
16:21 88.5 °F 60.4 °F 29.75 in NW 3.5 mph 3.5 mph 39 % 0.00 in
16:26 88.1 °F 60.7 °F 29.75 in WNW 3.0 mph 3.3 mph 40 % 0.00 in
16:31 87.8 °F 60.5 °F 29.75 in NW 3.5 mph 3.5 mph 40 % 0.00 in
16:36 87.6 °F 60.3 °F 29.75 in NW 1.2 mph   40 % 0.00 in
16:41 87.9 °F 60.6 °F 29.75 in NW 2.0 mph 2.1 mph 40 % 0.00 in
16:46 88.1 °F 60.7 °F 29.75 in West 3.5 mph 3.5 mph 40 % 0.00 in
16:51 88.1 °F 60.7 °F 29.74 in NE 2.3 mph 2.3 mph 40 % 0.00 in
16:56 87.9 °F 60.6 °F 29.74 in NW 2.3 mph 2.3 mph 40 % 0.00 in
17:01 87.8 °F 59.8 °F 29.74 in WNW 2.3 mph 2.3 mph 39 % 0.00 in
17:06 87.6 °F 59.6 °F 29.74 in NW 3.5 mph 3.5 mph 39 % 0.00 in
17:11 87.6 °F 60.3 °F 29.74 in WNW 3.5 mph 3.5 mph 40 % 0.00 in
17:16 87.7 °F 61.1 °F 29.74 in NW 2.3 mph 2.3 mph 41 % 0.00 in
17:21 87.7 °F 61.1 °F 29.74 in SSW 2.3 mph 2.3 mph 41 % 0.00 in
17:26 87.8 °F 61.2 °F 29.74 in WNW 2.0 mph 2.0 mph 41 % 0.00 in
17:31 88.0 °F 59.9 °F 29.74 in NW 2.0 mph 2.0 mph 39 % 0.00 in
17:36 87.7 °F 61.1 °F 29.74 in West 1.2 mph 1.2 mph 41 % 0.00 in
17:41 87.8 °F 60.5 °F 29.74 in NW 2.3 mph 2.3 mph 40 % 0.00 in
17:46 87.9 °F 60.6 °F 29.74 in NW 2.3 mph 2.3 mph 40 % 0.00 in
17:51 87.5 °F 59.5 °F 29.74 in WNW 2.3 mph 2.3 mph 39 % 0.00 in
17:56 87.6 °F 61.0 °F 29.74 in NW 2.3 mph   41 % 0.00 in
18:01 87.7 °F 60.4 °F 29.74 in WNW 1.2 mph 1.2 mph 40 % 0.00 in
18:06 87.6 °F 61.7 °F 29.74 in NNW 2.3 mph   42 % 0.00 in
18:11 87.8 °F 61.2 °F 29.74 in NW 1.2 mph 1.2 mph 41 % 0.00 in
18:16 87.3 °F 59.3 °F 29.74 in WNW 1.2 mph 1.2 mph 39 % 0.00 in
18:21 87.3 °F 60.0 °F 29.74 in North 3.5 mph 3.5 mph 40 % 0.00 in
18:27 86.9 °F 59.7 °F 29.73 in NW 1.2 mph 1.2 mph 40 % 0.00 in
18:32 86.6 °F 60.1 °F 29.73 in WNW 2.3 mph 2.3 mph 41 % 0.00 in
18:37 86.4 °F 59.9 °F 29.73 in WSW 1.2 mph 1.2 mph 41 % 0.00 in
18:42 86.3 °F 60.5 °F 29.73 in WSW 1.2 mph 1.2 mph 42 % 0.00 in
18:47 85.7 °F 60.6 °F 29.73 in NW 1.2 mph 1.2 mph 43 % 0.00 in
18:52 85.1 °F 60.7 °F 29.74 in Calm     44 % 0.00 in
18:57 84.6 °F 61.5 °F 29.74 in Calm     46 % 0.00 in
19:02 84.3 °F 60.6 °F 29.74 in Calm     45 % 0.00 in
19:07 83.9 °F 60.9 °F 29.74 in WNW 1.2 mph   46 % 0.00 in
19:12 83.6 °F 61.2 °F 29.74 in WNW 1.2 mph   47 % 0.00 in
19:17 83.3 °F 61.0 °F 29.74 in Calm     47 % 0.00 in
19:22 83.0 °F 61.3 °F 29.74 in Calm     48 % 0.00 in
19:27 82.6 °F 61.5 °F 29.74 in Calm     49 % 0.00 in
19:32 82.1 °F 61.6 °F 29.74 in Calm     50 % 0.00 in
19:37 81.6 °F 61.7 °F 29.75 in Calm     51 % 0.00 in
19:42 81.3 °F 62.0 °F 29.75 in Calm     52 % 0.00 in
19:47 80.9 °F 61.1 °F 29.75 in SW 1.2 mph 1.2 mph 51 % 0.00 in
19:52 80.6 °F 60.8 °F 29.75 in Calm     51 % 0.00 in
19:57 80.3 °F 61.6 °F 29.75 in Calm     53 % 0.00 in
20:02 79.9 °F 61.2 °F 29.75 in Calm     53 % 0.00 in
20:07 79.5 °F 61.4 °F 29.75 in Calm     54 % 0.00 in
20:12 79.2 °F 60.6 °F 29.75 in Calm     53 % 0.00 in
20:17 79.0 °F 61.5 °F 29.75 in Calm     55 % 0.00 in
20:22 78.6 °F 61.6 °F 29.75 in Calm     56 % 0.00 in
20:26 78.3 °F 62.3 °F 29.75 in Calm     58 % 0.00 in
20:36 77.8 °F 60.8 °F 29.75 in Calm     56 % 0.00 in
20:41 77.6 °F 61.7 °F 29.75 in Calm     58 % 0.00 in
20:46 77.3 °F 62.3 °F 29.76 in Calm     60 % 0.00 in
20:51 77.0 °F 61.6 °F 29.76 in Calm     59 % 0.00 in
20:56 76.7 °F 60.8 °F 29.76 in Calm     58 % 0.00 in
21:01 76.6 °F 62.1 °F 29.76 in Calm     61 % 0.00 in
21:07 76.3 °F 61.4 °F 29.76 in Calm     60 % 0.00 in
21:12 76.2 °F 61.3 °F 29.76 in Calm     60 % 0.00 in
21:17 76.1 °F 61.2 °F 29.77 in Calm     60 % 0.00 in
21:22 76.0 °F 62.0 °F 29.77 in Calm     62 % 0.00 in
21:27 75.8 °F 62.3 °F 29.77 in Calm     63 % 0.00 in
21:32 75.7 °F 62.7 °F 29.77 in Calm     64 % 0.00 in
21:37 75.5 °F 62.5 °F 29.77 in Calm     64 % 0.00 in
21:42 75.2 °F 62.2 °F 29.77 in Calm     64 % 0.00 in
21:47 75.0 °F 61.5 °F 29.77 in Calm     63 % 0.00 in
21:52 74.9 °F 61.5 °F 29.77 in Calm     63 % 0.00 in
21:57 74.8 °F 61.4 °F 29.77 in Calm     63 % 0.00 in
22:02 74.8 °F 62.2 °F 29.78 in Calm     65 % 0.00 in
22:07 74.7 °F 62.1 °F 29.78 in Calm     65 % 0.00 in
22:12 74.5 °F 62.0 °F 29.78 in Calm     65 % 0.00 in
22:17 74.4 °F 62.3 °F 29.78 in Calm     66 % 0.00 in
22:22 74.3 °F 62.6 °F 29.78 in Calm     67 % 0.00 in
22:27 74.1 °F 62.9 °F 29.78 in Calm     68 % 0.00 in
22:32 73.9 °F 62.7 °F 29.78 in Calm     68 % 0.00 in
22:37 73.6 °F 62.4 °F 29.78 in Calm     68 % 0.00 in
22:42 73.5 °F 62.7 °F 29.79 in Calm     69 % 0.00 in
22:47 73.3 °F 62.9 °F 29.79 in Calm     70 % 0.00 in
22:52 73.4 °F 62.6 °F 29.79 in Calm     69 % 0.00 in
22:57 73.7 °F 61.6 °F 29.79 in Calm     66 % 0.00 in
23:02 73.9 °F 61.8 °F 29.79 in Calm     66 % 0.00 in
23:07 73.8 °F 61.3 °F 29.79 in Calm     65 % 0.00 in
23:12 73.6 °F 61.5 °F 29.79 in Calm     66 % 0.00 in
23:17 73.4 °F 61.3 °F 29.79 in Calm     66 % 0.00 in
23:22 73.3 °F 61.3 °F 29.79 in Calm     66 % 0.00 in
23:27 73.1 °F 61.1 °F 29.79 in Calm     66 % 0.00 in
23:32 73.1 °F 61.5 °F 29.79 in Calm     67 % 0.00 in
23:37 73.1 °F 61.5 °F 29.80 in Calm     67 % 0.00 in
23:42 73.2 °F 62.0 °F 29.80 in Calm     68 % 0.00 in
23:47 73.1 °F 62.7 °F 29.80 in Calm     70 % 0.00 in
23:52 73.0 °F 61.4 °F 29.80 in Calm     67 % 0.00 in
23:57 73.2 °F 60.7 °F 29.80 in Calm     65 % 0.00 in
Park Place, Exeter, Tulare County, California, USA
Compliments of Weather Underground - 2.75 mb